Simultaneous Nadir Overpasses (SNOs) Predictions

Prediction of SNOs between NOAA-19 and TERRA Satellite Orbit:

Table of predicted SNOs for the next 14.0 days since TLE Epoch: 1/11/2014
Index Date (NOAA-19) Time (NOAA-19) Lat,Lon (NOAA-19) SZA (NOAA-19 ) Date (TERRA) Time (TERRA) Lat,Lon (TERRA) SZA (TERRA ) Distance(km) Time Diff (sec)
1 01/11/2014 06:45:00 70.05, 79.48 91.75 01/11/2014 06:45:08 70.06, 79.47 91.75 0.52 8
2 01/11/2014 07:35:52 -69.82,-112.89 88.50 01/11/2014 07:34:39 -69.89,-113.13 88.43 11.99 73
3 01/13/2014 11:29:05 70.06, 8.48 91.40 01/13/2014 11:29:24 70.06, 8.41 91.40 2.59 19
4 01/13/2014 12:19:59 -69.94, 175.92 88.73 01/13/2014 12:18:54 -69.95, 175.88 88.72 1.39 65
5 01/15/2014 16:13:11 70.12, -62.63 91.07 01/15/2014 16:13:39 70.10, -62.60 91.05 2.76 28
6 01/15/2014 17:04:04 -69.97, 104.88 89.09 01/15/2014 17:03:09 -69.99, 104.88 89.07 2.15 55
7 01/17/2014 20:57:16 70.14,-133.66 90.67 01/17/2014 20:57:54 70.12,-133.63 90.65 2.73 38
8 01/17/2014 21:48:08 -70.00, 33.83 89.48 01/17/2014 21:47:23 -70.02, 33.85 89.47 1.56 45
9 01/20/2014 01:41:19 70.13, 155.37 90.20 01/20/2014 01:42:08 70.13, 155.31 90.20 2.23 49
10 01/20/2014 02:32:13 -70.05, -37.23 89.90 01/20/2014 02:31:38 -70.03, -37.20 89.92 2.45 35
11 01/22/2014 06:25:24 70.17, 84.30 89.76 01/22/2014 06:26:22 70.18, 84.31 89.76 0.87 58
12 01/22/2014 07:16:17 -70.04,-108.22 90.39 01/22/2014 07:15:53 -70.02,-108.27 90.41 3.01 24
13 01/24/2014 11:09:29 70.22, 13.22
